1385078427247,2.55060
1385078487247,2.59276
1385078547247,2.56033
1385078607247,2.58102
1385078667247,2.56592
1385078727247,2.55700
1385078787247,2.55289
1385078847247,2.56830
1385078907247,2.58565
1385078967247,2.54575
1385079027247,2.57352
1385079087247,2.56786
1385079147247,2.55411
1385079207247,2.55572
1385079267247,2.55588
1385079327247,2.53921
1385079387247,2.56228
1385079447247,2.58304
1385079507247,2.54765
1385079567247,2.53889
1385079627247,2.57102
1385079687247,2.56762
1385079747247,2.57073
1385079807247,2.55661
1385079867247,2.57329
1385079927247,2.58922
1385079987247,2.57884
1385080047247,2.60398
1385080107247,2.56317
1385080167247,2.55470
1385080227247,2.59223
1385080287247,2.59048
1385080347247,2.58321
1385080407247,2.57386
1385080467247,2.60444
1385080527247,2.56230
1385080587247,2.60157
1385080647247,2.58911
1385080707247,2.57067
1385080767247,2.58727
1385080827247,2.58704
1385080887247,2.59803
1385080947247,2.58583
1385081007247,2.57547
1385081067247,2.58360
1385081127247,2.56336
1385081187247,2.58608
1385081247247,2.56663
1385081307247,2.58562
1385081367247,2.58553
1385081427247,2.61381
1385081487247,2.57399
1385081547247,2.58906
1385081607247,2.57297
1385081667247,2.58130
1385081727247,2.56535
1385081787247,2.56530
1385081847247,2.58755
1385081907247,2.58671
1385081967247,2.58831
1385082027257,2.57402
1385082087257,2.54716
1385082147257,2.59060
1385082207257,2.57131
1385082267257,2.59222
1385082327257,2.61298
1385082387257,2.59420
1385082447257,2.57597
1385082507257,2.58987
1385082567257,2.59735
1385082627257,2.58923
1385082687257,2.58875
1385082747257,2.60269
1385082807257,2.59278
1385082867257,2.58481
1385082927257,2.60425
1385082987257,2.57234
1385083047257,2.60313
1385083107257,2.59079
1385083167257,2.61636
1385083227257,2.60635
1385083287257,2.62674
1385083347257,2.57653
1385083407257,2.59414
1385083467257,2.59528
1385083527257,2.58796
1385083587257,2.59359
1385083647257,2.58992
1385083707257,2.59134
1385083767257,2.58907
1385083827257,2.57542
1385083887257,2.56081
1385083947257,2.56843
1385084007257,2.56530
1385084067257,2.60988
1385084127257,2.59918
1385084187257,2.58401
1385084247257,2.59294
1385084307257,2.58421
1385084367257,2.61479
1385084427257,2.58721
1385084487257,2.60413
1385084547257,2.57525
1385084607257,2.59155
1385084667257,2.57328
1385084727257,2.61060
1385084787257,2.58985
1385084847257,2.58223
1385084907257,2.60526
1385084967257,2.56221
1385085027257,2.59904
1385085087257,2.60575
1385085147257,2.61352
1385085207257,2.59105
1385085267257,2.59921
1385085327257,2.61818
1385085387257,2.60371
1385085447257,2.59628
1385085507257,2.60814
1385085567257,2.60984
1385085627267,2.60521
1385085687267,2.61173
1385085747267,2.58910
1385085807267,2.58104
1385085867267,2.55875
1385085927267,2.62748
1385085987267,2.60304
1385086047267,2.60085
1385086107267,2.60505
1385086167267,2.58541
1385086227267,2.59513
1385086287267,2.57639
1385086347267,2.60956
1385086407267,2.58903
1385086467267,2.59956
1385086527267,2.64885
1385086587267,2.59260
1385086647267,2.61081
1385086707267,2.59346
1385086767267,2.61600
1385086827267,2.60609
1385086887267,2.60952
1385086947267,2.61344
1385087007267,2.60386
1385087067267,2.59800
1385087127267,2.60249
1385087187267,2.59851
1385087247267,2.59800
1385087307267,2.58665
1385087367267,2.57756
1385087427267,2.58477
1385087487267,2.58066
1385087547267,2.60978
1385087607267,2.61291
1385087667267,2.58310
1385087727267,2.59144
1385087787267,2.58051
1385087847267,2.57953
1385087907267,2.57930
1385087967267,2.60550
1385088027267,2.60085
1385088087267,2.56414
1385088147267,2.58162
1385088207267,2.58716
1385088267267,2.58343
1385088327267,2.57986
1385088387267,2.62252
1385088447267,2.59016
1385088507267,2.58969
1385088567267,2.57201
1385088627267,2.56739
1385088687267,2.57401
1385088747267,2.58553
1385088807267,2.59465
1385088867267,2.61504
1385088927267,2.58298
1385088987267,2.57010
1385089047267,2.57381
1385089107267,2.60882
1385089167267,2.53117
1385089227277,2.60811
1385089287277,2.58547
1385089347277,2.60122
1385089407277,2.57518
1385089467277,2.58192
1385089527277,2.58222
1385089587277,2.59618
1385089647277,2.57413
1385089707277,2.60314
1385089767277,2.58717
1385089827277,2.57973
1385089887277,2.58729
1385089947277,2.57674
1385090007277,2.58627
1385090067277,2.55299
1385090127277,2.58739
1385090187277,2.57307
1385090247277,2.58274
1385090307277,2.60173
1385090367277,2.57672
1385090427277,2.60508
1385090487277,2.58810
1385090547277,2.58565
1385090607277,2.56777
1385090667277,2.58143
1385090727277,2.57366
1385090787277,2.57521
1385090847277,2.64087
1385090907277,2.57016
1385090967277,2.58078
1385091027277,2.56142
1385091087277,2.54657
1385091147277,2.56322
1385091207277,2.58276
1385091267277,2.55991
1385091327277,2.59870
1385091387277,2.56576
1385091447277,2.57351
1385091507277,2.56303
1385091567277,2.60384
1385091627277,2.57816
1385091687277,2.56741
1385091747277,2.55836
1385091807277,2.58312
1385091867277,2.56338
1385091927277,2.58818
1385091987277,2.56635
1385092047277,2.58406
1385092107277,2.56998
1385092167277,2.59122
1385092227277,2.55958
1385092287277,2.57385
1385092347277,2.55331
1385092407277,2.57350
1385092467277,2.55476
1385092527277,2.60880
1385092587277,2.57436
1385092647277,2.58019
1385092707277,2.58351
1385092767277,2.56691
1385092827286,2.57805
1385092887286,2.54204
1385092947286,2.55369
1385093007286,2.56815
1385093067286,2.57959
1385093127286,2.58661
1385093187286,2.55418
1385093247286,2.57423
1385093307286,2.57552
1385093367286,2.54340
1385093427286,2.55389
1385093487286,2.55185
1385093547286,2.56330
1385093607286,2.55327
1385093667286,2.55658
1385093727286,2.57687
1385093787286,2.64161
1385093847286,2.54588
1385093907286,2.57103
1385093967286,2.56308
1385094027286,2.56707
1385094087286,2.55742
1385094147286,2.62323
1385094207286,2.56925
1385094267286,2.57232
1385094327286,2.56513
1385094387286,2.55935
1385094447286,2.57238
1385094507286,2.53812
1385094567286,2.56328
1385094627286,2.54200
1385094687286,2.55574
1385094747286,2.54868
1385094807286,2.55777
1385094867286,2.55687
1385094927286,2.57881
1385094987286,2.59663
1385095047286,2.55722
1385095107286,2.55714
1385095167286,2.58541
1385095227286,2.57851
1385095287286,2.57477
1385095347286,2.57835
1385095407286,2.56229
1385095467286,2.54294
1385095527286,2.57140
1385095587286,2.55505
1385095647286,2.54719
1385095707286,2.55892
1385095767286,2.56994
1385095827286,2.54585
1385095887286,2.56415
1385095947286,2.56374
1385096007286,2.56439
1385096067286,2.55624
1385096127286,2.55276
1385096187286,2.55169
1385096247286,2.55599
1385096307286,2.55241
1385096367286,2.55125
1385096427296,2.56025
1385096487296,2.55335
1385096547296,2.56517
1385096607296,2.53462
1385096667296,2.54236
1385096727296,2.59984
1385096787296,2.56548
1385096847296,2.55237
1385096907296,2.56048
1385096967296,2.54732
1385097027296,2.54089
1385097087296,2.56116
1385097147296,2.56449
1385097207296,2.55797
1385097267296,2.55191
1385097327296,2.56486
1385097387296,2.54094
1385097447296,2.58228
1385097507296,2.54095
1385097567296,2.55497
1385097627296,2.54783
1385097687296,2.54861
1385097747296,2.54591
1385097807296,2.54492
1385097867296,2.53915
1385097927296,2.57668
1385097987296,2.55152
1385098047296,2.56053
1385098107296,2.55879
1385098167296,2.53351
1385098227296,2.55649
1385098287296,2.51622
1385098347296,2.55511
1385098407296,2.57276
1385098467296,2.54194
1385098527296,2.53894
1385098587296,2.55621
1385098647296,2.52512
1385098707296,2.54672
1385098767296,2.56146
1385098827296,2.53858
1385098887296,2.54980
1385098947296,2.55518
1385099007296,2.51726
1385099067296,2.55273
1385099127296,2.55366
1385099187296,2.55568
1385099247296,2.51877
1385099307296,2.53371
1385099367296,2.54092
1385099427296,2.53138
1385099487296,2.53221
1385099547296,2.53339
1385099607296,2.52199
1385099667296,2.53181
1385099727296,2.53109
1385099787296,2.52802
1385099847296,2.53269
1385099907296,2.50636
1385099967296,2.52745
1385100027306,2.54561
1385100087306,2.56484
1385100147306,2.54960
1385100207306,2.53449
1385100267306,2.52983
1385100327306,2.52047
1385100387306,2.55551
1385100447306,2.50636
1385100507306,2.52719
1385100567306,2.55537
1385100627306,2.54460
1385100687306,2.52732
1385100747306,2.57889
1385100807306,2.51450
1385100867306,2.54384
1385100927306,2.52563
1385100987306,2.53117
1385101047306,2.52207
1385101107306,2.53892
1385101167306,2.53242
1385101227306,2.52868
1385101287306,2.51282
1385101347306,2.53433
1385101407306,2.51227
1385101467306,2.52099
1385101527306,2.51460
1385101587306,2.53756
1385101647306,2.54316
1385101707306,2.55546
1385101767306,2.56102
1385101827306,2.53591
1385101887306,2.53474
1385101947306,2.53056
1385102007306,2.51391
1385102067306,2.53099
1385102127306,2.51304
1385102187306,2.51942
1385102247306,2.52624
1385102307306,2.54401
1385102367306,2.52422
1385102427306,2.00063
1385102487306,2.45769
1385102547306,2.49213
1385102607306,2.53032
1385102667306,2.52481
1385102727306,2.49997
1385102787306,2.61942
1385102847306,2.53127
1385102907306,2.53299
1385102967306,2.52046
1385103027306,2.52204
1385103087306,2.54491
1385103147306,2.50188
1385103207306,2.52441
1385103267306,2.51932
1385103327306,2.69957
1385103387306,2.55262
1385103447306,2.51340
1385103507306,2.53593
1385103567306,2.53373
1385103627317,2.52787
1385103687317,2.53183
1385103747317,2.52690
1385103807317,2.51720
1385103867317,2.52695
1385103927317,2.53083
1385103987317,2.51917
1385104047317,2.50692
1385104107317,2.52557
1385104167317,2.55022
1385104227317,2.54951
1385104287317,2.51254
1385104347317,2.50478
1385104407317,2.53217
1385104467317,2.51703
1385104527317,2.50717
1385104587317,2.51391
1385104647317,2.51657
1385104707317,2.57933
1385104767317,2.52522
1385104827317,2.51811
1385104887317,2.50824
1385104947317,2.44330
1385105007317,2.54020
1385105067317,2.51338
1385105127317,2.51025
1385105187317,2.52494
1385105247317,2.52152
1385105307317,2.50536
1385105367317,2.50534
1385105427317,2.50435
1385105487317,2.51290
1385105547317,2.50453
1385105607317,2.50015
1385105667317,2.50122
1385105727317,2.49781
1385105787317,2.48110
1385105847317,2.49062
1385105907317,2.50538
1385105967317,2.50671
1385106027317,2.52274
1385106087317,2.51271
1385106147317,2.48893
1385106207317,2.50431
1385106267317,2.50920
1385106327317,2.50777
1385106387317,2.49670
1385106447317,2.52141
1385106507317,2.51849
1385106567317,2.50519
1385106627317,2.53093
1385106687317,2.52241
1385106747317,2.51534
1385106807317,2.51796
1385106867317,2.48956
1385106927317,2.51123
1385106987317,2.50791
1385107047317,2.48930
1385107107317,2.51827
1385107167317,2.51981
1385107227327,2.51194
1385107287327,2.51603
1385107347327,2.51298
1385107407327,2.50847
1385107467327,2.47190
1385107527327,2.48365
1385107587327,2.50626
1385107647327,2.51471
1385107707327,2.50040
1385107767327,2.47899
1385107827327,2.51784
1385107887327,2.53454
1385107947327,2.50450
1385108007327,2.51561
1385108067327,2.50164
1385108127327,2.51402
1385108187327,2.48470
1385108247327,2.51311
1385108307327,2.49861
1385108367327,2.49893
1385108427327,2.50730
1385108487327,2.50464
1385108547327,2.50104
1385108607327,2.51433
1385108667327,2.48230
1385108727327,2.48262
1385108787327,2.49573
1385108847327,2.47806
1385108907327,2.50553
1385108967327,2.47908
1385109027327,2.47656
1385109087327,2.48305
1385109147327,2.48846
1385109207327,2.46954
1385109267327,2.44595
1385109327327,2.56513
1385109387327,2.47040
1385109447327,2.46842
1385109507327,2.46028
1385109567327,2.47328
1385109627327,2.49928
1385109687327,2.48150
1385109747327,2.46106
1385109807327,2.49373
1385109867327,2.47892
1385109927327,2.49732
1385109987327,2.49964
1385110047327,2.47965
1385110107327,2.48368
1385110167327,2.49232
1385110227327,2.45928
1385110287327,2.47024
1385110347327,2.48508
1385110407327,2.48505
1385110467327,2.46465
1385110527327,2.47762
1385110587327,2.48316
1385110647327,2.48714
1385110707327,2.48409
1385110767327,2.47119
1385110827338,2.48326
1385110887338,2.46560
1385110947338,2.45382
1385111007338,2.49794
1385111067338,2.47589
1385111127338,2.50118
1385111187338,2.47020
1385111247338,2.50546
1385111307338,2.45518
1385111367338,2.47750
1385111427338,2.46108
1385111487338,2.47007
1385111547338,2.48251
1385111607338,2.47635
1385111667338,2.46585
1385111727338,2.48758
1385111787338,2.48475
1385111847338,2.48304
1385111907338,2.48761
1385111967338,2.47504
1385112027338,2.47433
1385112087338,2.47257
1385112147338,2.45218
1385112207338,2.48734
1385112267338,2.48182
1385112327338,2.48287
1385112387338,2.46302
1385112447338,2.47798
1385112507338,2.48855
1385112567338,2.47594
1385112627338,2.48418
1385112687338,2.45426
1385112747338,2.46953
1385112807338,2.47713
1385112867338,2.50218
1385112927338,2.48498
1385112987338,2.48759
1385113047338,2.46616
1385113107338,2.46920
1385113167338,2.47108
1385113227338,2.51080
1385113287338,2.49866
1385113347338,2.45973
1385113407338,2.49271
1385113467338,2.42283
1385113527338,2.49122
1385113587338,2.47235
1385113647338,2.47195
1385113707338,2.52276
1385113767338,2.48260
1385113827338,2.49264
1385113887338,2.46199
1385113947338,2.47034
1385114007338,2.56140
1385114067338,2.48710
1385114127338,2.50376
1385114187338,2.47934
1385114247338,2.52936
1385114307338,2.48303
1385114367338,2.45858
1385114427349,2.48503
1385114487349,2.49023
1385114547349,2.48629
1385114607349,2.47304
1385114667349,2.48282
1385114727349,2.45717
1385114787349,2.49772
1385114847349,2.49011
1385114907349,2.49863
1385114967349,2.52470
1385115027349,2.50747
1385115087349,2.49068
1385115147349,2.48610
1385115207349,2.51211
1385115267349,2.48375
1385115327349,2.50810
1385115387349,2.48671
1385115447349,2.47962
1385115507349,2.47904
1385115567349,2.47791
1385115627349,2.49508
1385115687349,2.49618
1385115747349,2.50407
1385115807349,2.50276
1385115867349,2.51613
1385115927349,2.51979
1385115987349,2.47125
1385116047349,2.51436
1385116107349,2.48380
1385116167349,2.49121
1385116227349,2.47878
1385116287349,2.51356
1385116347349,2.47190
1385116407349,2.49700
1385116467349,2.48268
1385116527349,2.50411
1385116587349,2.54144
1385116647349,2.51995
1385116707349,2.50368
1385116767349,2.51640
1385116827349,2.51017
1385116887349,2.49800
1385116947349,2.50645
1385117007349,2.48413
1385117067349,2.51508
1385117127349,2.49027
1385117187349,2.51050
1385117247349,2.52905
1385117307349,2.51267
1385117367349,2.49309
1385117427349,2.46776
1385117487349,2.48635
1385117547349,2.49046
1385117607349,2.49987
1385117667349,2.51097
1385117727349,2.49781
1385117787349,2.48047
1385117847349,2.50218
1385117907349,2.49590
1385117967349,2.51037
1385118027361,2.51672
1385118087361,2.52134
1385118147361,2.49086
1385118207361,2.50299
1385118267361,2.50176
1385118327361,2.47296
1385118387361,2.49681
1385118447361,2.49902
1385118507361,2.49818
1385118567361,2.54634
1385118627361,2.52029
1385118687361,2.53268
1385118747361,2.51298
1385118807361,2.51932
1385118867361,2.50040
1385118927361,2.53104
1385118987361,2.52890
1385119047361,2.50158
1385119107361,2.52753
1385119167361,2.52021
1385119227361,2.52261
1385119287361,2.48489
1385119347361,2.50777
1385119407361,2.51714
1385119467361,2.49644
1385119527361,2.52564
1385119587361,2.52261
1385119647361,2.49211
1385119707361,2.51615
1385119767361,2.51033
1385119827361,2.52440
1385119887361,2.49694
1385119947361,2.49534
1385120007361,2.51193
1385120067361,2.52194
1385120127361,2.53702
1385120187361,2.51437
1385120247361,2.50511
1385120307361,2.54045
1385120367361,2.47427
1385120427361,2.53824
1385120487361,2.51416
1385120547361,2.51395
1385120607361,2.51410
1385120667361,2.50693
1385120727361,2.50437
1385120787361,2.52110
1385120847361,2.53041
1385120907361,2.51397
1385120967361,2.53537
1385121027361,2.52410
1385121087361,2.52095
1385121147361,2.49668
1385121207361,2.51413
1385121267361,2.51052
1385121327361,2.52628
1385121387361,2.54232
1385121447361,2.51084
1385121507361,2.50546
1385121567361,2.49135
1385121627372,2.49150
1385121687372,2.52446
1385121747372,2.52186
1385121807372,2.52907
1385121867372,2.50867
1385121927372,2.51972
1385121987372,2.49885
1385122047372,2.52019
1385122107372,2.49848
1385122167372,2.51982
1385122227372,2.52759
1385122287372,2.49230
1385122347372,2.51202
1385122407372,2.51982
1385122467372,2.50945
1385122527372,2.52591
1385122587372,2.50701
1385122647372,2.51953
1385122707372,2.49034
1385122767372,2.50771
1385122827372,2.52314
1385122887372,2.49243
1385122947372,2.49648
1385123007372,2.53009
1385123067372,2.50868
1385123127372,2.51172
1385123187372,2.50961
1385123247372,2.53000
1385123307372,2.51353
1385123367372,2.54316
1385123427372,2.51224
1385123487372,2.53820
1385123547372,2.52765
1385123607372,2.51754
1385123667372,2.50210
1385123727372,2.54584
1385123787372,2.52844
1385123847372,2.51049
1385123907372,2.53147
1385123967372,2.51422
1385124027372,2.50108
1385124087372,2.52843
1385124147372,2.53871
1385124207372,2.53148
1385124267372,2.52505
1385124327372,2.54468
1385124387372,2.52017
1385124447372,2.52477
1385124507372,2.53808
1385124567372,2.52362
1385124627372,2.51895
1385124687372,2.53023
1385124747372,2.52838
1385124807372,2.53197
1385124867372,2.52645
1385124927372,2.51325
1385124987372,2.50972
1385125047372,2.49944
1385125107372,2.52297
1385125167372,2.50093
1385125227384,2.51120
1385125287384,2.51742
1385125347384,2.49438
1385125407384,2.53424
1385125467384,2.51692
1385125527384,2.50867
1385125587384,2.53508
1385125647384,2.49779
1385125707384,2.50689
1385125767384,2.50393
1385125827384,2.50899
1385125887384,2.49633
1385125947384,2.51219
1385126007384,2.49370
1385126067384,2.49724
1385126127384,2.51993
1385126187384,2.50484
1385126247384,2.51118
1385126307384,2.49756
1385126367384,2.54077
1385126427384,2.49625
1385126487384,2.50156
1385126547384,2.51831
1385126607384,2.50669
1385126667384,2.52263
1385126727384,2.52346
1385126787384,2.51269
1385126847384,2.52381
1385126907384,2.53069
1385126967384,2.51883
1385127027384,2.49893
1385127087384,2.49715
1385127147384,2.52112
1385127207384,2.52184
1385127267384,2.51549
1385127327384,2.50385
1385127387384,2.51319
1385127447384,2.53602
1385127507384,2.52130
1385127567384,2.51705
1385127627384,2.52210
1385127687384,2.52313
1385127747384,2.49934
1385127807384,2.50064
1385127867384,2.52904
1385127927384,2.51519
1385127987384,2.53387
1385128047384,2.53492
1385128107384,2.50954
1385128167384,2.50704
1385128227384,2.49654
1385128287384,2.53487
1385128347384,2.52595
1385128407384,2.54421
1385128467384,2.48330
1385128527384,2.52471
1385128587384,2.48069
1385128647384,2.52222
1385128707384,2.53316
1385128767384,2.53226
1385128827396,2.52876
1385128887396,2.48208
1385128947396,2.51700
1385129007396,2.54075
1385129067396,2.51493
1385129127396,2.53183
1385129187396,2.50601
1385129247396,2.53820
1385129307396,2.50949
1385129367396,2.52117
1385129427396,2.51628
1385129487396,2.54528
1385129547396,2.52510
1385129607396,2.52214
1385129667396,2.52103
1385129727396,2.52717
1385129787396,2.52614
1385129847396,2.55394
1385129907396,2.53052
1385129967396,2.52461
1385130027396,2.50885
1385130087396,2.51356
1385130147396,2.48472
1385130207396,2.56918
1385130267396,2.53919
1385130327396,2.51581
1385130387396,2.52018
1385130447396,2.50147
1385130507396,2.51396
1385130567396,2.51612
1385130627396,2.50711
1385130687396,2.49687
1385130747396,2.51659
1385130807396,2.56146
1385130867396,2.52488
1385130927396,2.53108
1385130987396,2.53534
1385131047396,2.53028
1385131107396,2.52934
1385131167396,2.54508
1385131227396,2.55641
1385131287396,2.54544
1385131347396,2.56527
1385131407396,2.54255
1385131467396,2.56495
1385131527396,2.56012
1385131587396,2.58127
1385131647396,2.56364
1385131707396,2.57087
1385131767396,2.56679
1385131827396,2.57050
1385131887396,2.57670
1385131947396,2.56956
1385132007396,2.61156
1385132067396,2.60697
1385132127396,2.59589
1385132187396,2.58240
1385132247396,2.59616
1385132307396,2.60766
1385132367396,2.60404
1385132427408,2.60006
1385132487408,2.60942
1385132547408,2.57514
1385132607408,2.61707
1385132667408,2.60303
1385132727408,2.58573
1385132787408,2.61193
1385132847408,2.57430
1385132907408,2.61226
1385132967408,2.55831
1385133027408,2.58928
1385133087408,2.59786
1385133147408,2.59796
1385133207408,2.59664
1385133267408,2.58214
1385133327408,2.59012
1385133387408,2.54965
1385133447408,2.57702
1385133507408,2.56042
1385133567408,2.54073
1385133627408,2.52547
1385133687408,2.50569
1385133747408,2.56129
1385133807408,2.54562
1385133867408,2.53026
1385133927408,2.51278
1385133987408,2.55800
1385134047408,2.52199
1385134107408,2.54567
1385134167408,2.54927
1385134227408,2.52307
1385134287408,2.53642
1385134347408,2.55022
1385134407408,2.54214
1385134467408,2.54659
1385134527408,2.52428
1385134587408,2.54942
1385134647408,2.51908
1385134707408,2.55333
1385134767408,2.58062
1385134827408,2.54263
1385134887408,2.55856
1385134947408,2.56242
1385135007408,2.56094
1385135067408,2.54735
1385135127408,2.61299
1385135187408,2.56654
1385135247408,2.53879
1385135307408,2.54491
1385135367408,2.56844
1385135427408,2.56047
1385135487408,2.54400
1385135547408,2.55607
1385135607408,2.55426
1385135667408,2.57106
1385135727408,2.54535
1385135787408,2.53534
1385135847408,2.51402
1385135907408,2.55531
1385135967408,2.52986
1385136027419,2.54308
1385136087419,2.51919
1385136147419,2.58683
1385136207419,2.54068
1385136267419,2.53477
1385136327419,2.53573
1385136387419,2.55781
1385136447420,2.54836
1385136507420,2.53689
1385136567420,2.52962
1385136627419,2.56236
1385136687419,2.54428
1385136747419,2.56039
1385136807419,2.54849
1385136867419,2.57054
1385136927419,2.53415
1385136987419,2.53813
1385137047419,2.54070
1385137107419,2.53038
1385137167419,2.52285
1385137227419,2.54636
1385137287419,2.55754
1385137347419,2.54401
1385137407419,2.53417
1385137467419,2.55463
1385137527419,2.56128
1385137587419,2.55809
1385137647419,2.53878
1385137707419,2.51587
1385137767419,2.52881
1385137827420,2.53165
1385137887420,2.53508
1385137947420,2.55488
1385138007419,2.49586
1385138067419,2.53888
1385138127419,2.53203
1385138187419,2.51968
1385138247419,2.54832
1385138307419,2.54497
1385138367419,2.53766
1385138427419,2.51596
1385138487419,2.53058
1385138547419,2.54334
1385138607419,2.53702
1385138667419,2.51475
1385138727419,2.55792
1385138787419,2.53606
1385138847419,2.51386
1385138907419,2.52608
1385138967419,2.53776
1385139027419,2.53597
1385139087419,2.54009
1385139147420,2.50502
1385139207420,2.50292
1385139267420,2.55296
1385139327419,2.55368
1385139387419,2.53385
1385139447419,2.54490
1385139507419,2.52286
1385139567419,2.51469
1385139627431,2.52957
1385139687431,2.53276
1385139747431,2.52354
1385139807431,2.50926
1385139867431,2.51959
1385139927431,2.53560
1385139987431,2.51782
1385140047431,2.53568
1385140107431,2.51741
1385140167431,2.51018
1385140227431,2.54883
1385140287431,2.51764
1385140347431,2.52659
1385140407431,2.54464
1385140467431,2.52440
1385140527431,2.54140
1385140587431,2.52496
1385140647431,2.52319
1385140707431,2.52584
1385140767431,2.52581
1385140827431,2.53455
1385140887431,2.52263
1385140947431,2.53794
1385141007431,2.50995
1385141067431,2.52995
1385141127431,2.55092
1385141187431,2.51472
1385141247431,2.53436
1385141307431,2.52447
1385141367431,2.52671
1385141427431,2.54098
1385141487431,2.51788
1385141547431,2.50414
1385141607431,2.52114
1385141667431,2.55280
1385141727431,2.52197
1385141787431,2.50162
1385141847431,2.50752
1385141907431,2.52237
1385141967431,2.54774
1385142027431,2.50735
1385142087431,2.51777
1385142147431,2.52570
1385142207431,2.49037
1385142267431,2.51097
1385142327431,2.53457
1385142387431,2.49498
1385142447431,2.50729
1385142507431,2.49607
1385142567431,2.49644
1385142627431,2.50122
1385142687431,2.51634
1385142747431,2.51737
1385142807431,2.52509
1385142867431,2.49825
1385142927431,2.49743
1385142987431,2.51379
1385143047431,2.50313
1385143107431,2.49038
1385143167431,2.47714
1385143227442,2.48760
1385143287442,2.50057
1385143347442,2.50377
1385143407442,2.49417
1385143467442,2.50588
1385143527442,2.50932
1385143587442,2.49931
1385143647442,2.50253
1385143707442,2.50369
1385143767442,2.49520